Date,TemperatureHighF,TemperatureAvgF,TemperatureLowF,DewpointHighF,DewpointAvgF,DewpointLowF,HumidityHigh,HumidityAvg,HumidityLow,PressureMaxIn,PressureMinIn,WindSpeedMaxMPH,WindSpeedAvgMPH,GustSpeedMaxMPH,PrecipitationSumIn
2013-5-1,42.0,33.7,28.0,-99.9,-99.9,-99.9,0,0,100,0.00,40.00,0,-999,0,0.38
2013-5-2,54.0,40.5,29.0,-99.9,-99.9,-99.9,0,0,100,0.00,40.00,0,-999,0,0.02
2013-5-3,61.0,49.5,38.0,-99.9,-99.9,-99.9,0,0,100,0.00,40.00,0,-999,0,0.00
2013-5-4,49.0,45.5,41.0,-99.9,-99.9,-99.9,0,0,100,0.00,40.00,0,-999,0,0.17
2013-5-5,62.0,48.0,36.0,-99.9,-99.9,-99.9,0,0,100,0.00,40.00,0,-999,0,0.03
2013-5-6,68.0,53.8,41.0,-99.9,-99.9,-99.9,0,0,100,0.00,40.00,0,-999,0,0.00
2013-5-7,73.0,57.7,47.0,-99.9,-99.9,-99.9,0,0,100,0.00,40.00,0,-999,0,0.02
2013-5-8,66.0,56.5,48.0,-99.9,-99.9,-99.9,0,0,100,0.00,40.00,0,-999,0,0.02
2013-5-9,68.0,55.6,46.0,-99.9,-99.9,-99.9,0,0,100,0.00,40.00,0,-999,0,0.04
2013-5-10,66.0,54.3,45.0,-99.9,-99.9,-99.9,0,0,100,0.00,40.00,0,-999,0,0.07
2013-5-11,67.0,52.8,39.0,-99.9,-99.9,-99.9,0,0,100,0.00,40.00,0,-999,0,0.05
2013-5-12,78.0,66.8,53.0,-99.9,-99.9,-99.9,0,0,100,0.00,40.00,0,-999,0,0.00
2013-5-13,86.0,71.9,61.0,-99.9,-99.9,-99.9,0,0,100,0.00,40.00,0,-999,0,0.00
2013-5-14,77.0,65.9,50.0,-99.9,-99.9,-99.9,0,0,100,0.00,40.00,0,-999,0,0.00
2013-5-15,71.0,57.6,46.0,-99.9,-99.9,-99.9,0,0,100,0.00,40.00,0,-999,0,0.00
2013-5-16,66.0,56.0,49.0,-99.9,-99.9,-99.9,0,0,100,0.00,40.00,0,-999,0,0.07
2013-5-17,61.0,54.2,49.0,-99.9,-99.9,-99.9,0,0,100,0.00,40.00,0,-999,0,0.11
2013-5-18,56.0,50.2,45.0,-99.9,-99.9,-99.9,0,0,100,0.00,40.00,0,-999,0,0.36
2013-5-19,60.0,49.5,45.0,-99.9,-99.9,-99.9,0,0,100,0.00,40.00,0,-999,0,0.53
2013-5-20,53.0,47.4,44.0,-99.9,-99.9,-99.9,0,0,100,0.00,40.00,0,-999,0,1.04
2013-5-21,60.0,53.8,46.0,-99.9,-99.9,-99.9,0,0,100,0.00,40.00,0,-999,0,0.06
2013-5-22,59.0,50.6,41.0,-99.9,-99.9,-99.9,0,0,100,0.00,40.00,0,-999,0,0.00
2013-5-23,63.0,52.1,45.0,-99.9,-99.9,-99.9,0,0,100,0.00,40.00,0,-999,0,0.25
2013-5-24,70.0,57.2,47.0,-99.9,-99.9,-99.9,0,0,100,0.00,40.00,0,-999,0,0.01
2013-5-25,79.0,61.7,46.0,-99.9,-99.9,-99.9,0,0,100,0.00,40.00,0,-999,0,0.00
2013-5-26,75.0,59.4,44.0,-99.9,-99.9,-99.9,0,0,100,0.00,40.00,0,-999,0,0.04
2013-5-27,69.0,56.3,44.0,-99.9,-99.9,-99.9,0,0,100,0.00,40.00,0,-999,0,0.04
2013-5-28,70.0,53.9,42.0,-99.9,-99.9,-99.9,0,0,100,0.00,40.00,0,-999,0,0.02
2013-5-29,56.0,50.0,45.0,-99.9,-99.9,-99.9,0,0,100,0.00,40.00,0,-999,0,0.92
2013-5-30,48.0,48.0,48.0,-99.9,-99.9,-99.9,0,0,100,0.00,40.00,0,-999,0,0.95
2013-5-31,54.0,50.9,46.0,-99.9,-99.9,-99.9,0,0,100,0.00,40.00,0,-999,0,0.00